{"data":{"norad_id":63212,"intl_designator":"2025-052C","name":"IOD-1","alt_names":[],"object_type":"PAYLOAD","status":"ACTIVE","operator":null,"country":"SPN","launch_date":"2025-03-15","launch_site_code":"AFWTR","launch_vehicle":null,"mission":null,"orbit_class":"UNKNOWN","rcs_meters":null,"size_class":null,"mass_kg":null,"dimensions":null,"purposes":[],"wikipedia_slug":null,"has_3d_model":false,"image_url":null,"decayed_at":null,"tle_current":{"epoch":"2026-05-25T03:37:20.294112Z","epoch_age_seconds":52225,"freshness":"FRESH","line1":"1 63212U 25052C   26145.15092933  .00050200  00000+0  87569-3 0  9992","line2":"2 63212  97.3856  46.2150 0003802 124.5200 235.6411 15.50552412 66913","mean_motion":15.50552412,"eccentricity":0.0003802,"inclination_deg":97.3856,"raan_deg":46.215,"arg_perigee_deg":124.52,"mean_anomaly_deg":235.6411,"bstar":0.00087569,"rev_number":6691,"period_min":92.870127372386,"perigee_km":412.52931914807,"apogee_km":417.69490577319,"semimajor_km":6793.2491124606,"source":"CELESTRAK","updated_at":"2026-05-25T13:38:03.574812Z"}}}